Regional Weather Roundup
Issued by NWS

Home | Current Version | Previous Version | Graphics & Text | Print | Product List | Glossary Off
Versions: 1 2 3 4 5 6 7 8 9 10 11 12 13 14 15 16 17 18 19 20 21 22 23 24 25 26 27 28 29 30 31 32 33 34 35 36 37 38 39 40 41 42 43 44 45 46 47 48 49 50

137
ASUS43 KMKX 190610
RWRWI

WISCONSIN REGIONAL WEATHER ROUNDUP
NATIONAL WEATHER SERVICE MILWAUKEE/SULLIVAN WI
1200 AM CST SUN NOV 19 2017

NOTE: "FAIR" INDICATES FEW OR NO CLOUDS BELOW 12,000 FEET WITH NO
SIGNIFICANT WEATHER AND/OR OBSTRUCTIONS TO VISIBILITY.

WIZ001-002-006>008-014>016-023>028-190700-
NORTHWEST WISCONSIN

CITY           SKY/WX    TMP DP  RH WIND       PRES   REMARKS
SUPERIOR ARPT  CLOUDY    20  11  69 W8        29.99R WCI  10
6HR MIN TEMP:  19; 6HR MAX TEMP:  26;

ASHLAND        FLURRIES  20  11  68 W10       29.93S WCI   9
6HR MIN TEMP:  20; 6HR MAX TEMP:  27; 6HR PCP: TRACE;

HAYWARD        MOCLDY    19   9  65 VRB5      29.93S WCI  12
6HR MIN TEMP:  19; 6HR MAX TEMP:  26;

SIREN          MOCLDY    19  11  71 NW9       30.00R WCI   8
6HR MIN TEMP:  19; 6HR MAX TEMP:  26;

CUMBERLAND     CLOUDY    19  10  68 NW8G17    29.95F WCI   9
RICE LAKE      CLOUDY    21  11  66 NW8G17    29.98S WCI  11
6HR MIN TEMP:  21; 6HR MAX TEMP:  29;

CHETEK         CLOUDY    22  14  71 NW7       29.97R WCI  13
6HR MIN TEMP:  21; 6HR MAX TEMP:  29;

LADYSMITH      CLOUDY    23  13  68 NW15      29.94R WCI  10
6HR MIN TEMP:  23; 6HR MAX TEMP:  29;

EAU CLAIRE     MOCLDY    22  12  65 NW17G24   29.98R WCI   8
6HR MIN TEMP:  22; 6HR MAX TEMP:  30;

MENOMONIE      CLOUDY    23  15  70 W12       30.00R WCI  12
6HR MIN TEMP:  23; 6HR MAX TEMP:  30;

NEW RICHMOND   MOCLDY    19  10  69 NW12      30.01F WCI   7
6HR MIN TEMP:  19; 6HR MAX TEMP:  27;

OSCEOLA        PTCLDY    19  12  72 W8        30.04F WCI   9
6HR MIN TEMP:  19; 6HR MAX TEMP:  28;

$$

WIZ003>005-009-010-017-018-190700-
NORTH CENTRAL WISCONSIN

CITY           SKY/WX    TMP DP  RH WIND       PRES   REMARKS
MANITOWISH WTR FLURRIES  20  18  94 W6        29.83S WCI  12
6HR MIN TEMP:  20; 6HR MAX TEMP:  26;

ARBOR VITAE    LGT SNOW  22  18  85 NW8G16    29.83R WCI  13
6HR MIN TEMP:  22; 6HR MAX TEMP:  29;

WOODRUFF       LGT SNOW  22  18  85 NW8G16    29.83R WCI  13
6HR MIN TEMP:  22; 6HR MAX TEMP:  29;

RHINELANDER    FLURRIES N/A N/A N/A NW10      29.83R
                                      6HR PCP: TRACE;

EAGLE RIVER    LGT SNOW  22  17  78 NW8       29.80R WCI  13
6HR MIN TEMP:  22; 6HR MAX TEMP:  28;

LAND O LAKES   LGT SNOW  23  19  85 NW9       29.81S WCI  13
6HR MIN TEMP:  23; 6HR MAX TEMP:  28;

PHILLIPS       CLOUDY    21  13  71 NW9       29.87S WCI  11
6HR MIN TEMP:  21; 6HR MAX TEMP:  27;

TOMAHAWK       CLOUDY    22  14  71 NW9       29.86R WCI  11
6HR MIN TEMP:  22; 6HR MAX TEMP:  28;

MEDFORD        CLOUDY    23  15  70 NW10      29.86S WCI  12
6HR MIN TEMP:  23; 6HR MAX TEMP:  30;

MERRILL        CLOUDY    24  16  70 NW13G21   29.87R WCI  13
6HR MIN TEMP:  24; 6HR MAX TEMP:  30;

$$

WIZ029-030-035-036-043>047-190700-
CENTRAL WISCONSIN

CITY           SKY/WX    TMP DP  RH WIND       PRES   REMARKS
WAUSAU         CLOUDY    25  15  66 NW16G26   29.85R WCI  12
6HR MIN TEMP:  25; 6HR MAX TEMP:  31;

MOSINEE        CLOUDY    25  18  74 NW17      29.87  WCI  11
MARSHFIELD     CLOUDY    25  15  66 NW16      29.87R WCI  12
6HR MIN TEMP:  25; 6HR MAX TEMP:  32; 6HR PCP: TRACE;

STEVENS POINT  CLOUDY    25  15  64 NW12G20   29.87R WCI  15
6HR MIN TEMP:  25; 6HR MAX TEMP:  32;

WAUPACA        CLOUDY    31  20  62 NW8       29.86R WCI  24
6HR MIN TEMP:  31; 6HR MAX TEMP:  38;

WAUTOMA        CLOUDY    30  20  66 NW12G18   29.88R WCI  20
6HR MIN TEMP:  30; 6HR MAX TEMP:  36;

WISC RAPIDS    CLOUDY    28  16  60 NW12      29.89R WCI  18
6HR MIN TEMP:  28; 6HR MAX TEMP:  35;

CAMP DOUGLAS   CLOUDY   N/A N/A N/A NW16G22   29.92R
$$

WIZ011>013-019>022-031-037>040-048>050-190700-
NORTHEAST WISCONSIN

CITY           SKY/WX    TMP DP  RH WIND       PRES   REMARKS
ANTIGO         CLOUDY    24  18  78 NW16G23   29.83R WCI  10
6HR MIN TEMP:  24; 6HR MAX TEMP:  30;

SHAWANO        CLOUDY    32  23  70 NW14G21   29.82R WCI  22
6HR MIN TEMP:  32; 6HR MAX TEMP:  37;

OCONTO         CLOUDY    31  23  70 NW8       29.81R WCI  24
6HR MIN TEMP:  31; 6HR MAX TEMP:  36;

STURGEON BAY   CLOUDY    32  24  72 NW18G28   29.78R WCI  20
6HR MIN TEMP:  32; 6HR MAX TEMP:  36;

GREEN BAY      CLOUDY    32  26  78 NW15G21   29.81R WCI  22
6HR MIN TEMP:  32; 6HR MAX TEMP:  37;

MANITOWOC      CLOUDY    34  27  75 NW15G23   29.80R WCI  24
6HR MIN TEMP:  33; 6HR MAX TEMP:  37;

APPLETON       CLOUDY    30  19  64 NW15      29.81R WCI  19
CLINTONVILLE   CLOUDY    30  19  64 NW15G22   29.84R WCI  19
OSHKOSH        CLOUDY    32  22  66 NW15      29.83R WCI  22
6HR MIN TEMP:  32; 6HR MAX TEMP:  37;

$$

WIZ032>034-041-042-053>061-190700-
SOUTHWEST WISCONSIN

CITY           SKY/WX    TMP DP  RH WIND       PRES   REMARKS
LA CROSSE      CLOUDY    28  16  60 NW22G30   29.97R WCI  14
6HR MIN TEMP:  28; 6HR MAX TEMP:  38;

SPARTA         CLOUDY    27  17  65 NW14G22   29.95S WCI  16
6HR MIN TEMP:  27; 6HR MAX TEMP:  34;

VIROQUA        CLOUDY    26  20  76 NW14      29.92R WCI  15
6HR MIN TEMP:  26; 6HR MAX TEMP:  34;

BOSCOBEL       CLOUDY    31  19  61 W8        29.96R WCI  23
6HR MIN TEMP:  30; 6HR MAX TEMP:  39;

PRAIRIE DU CHI CLOUDY    29  18  63 NW10      29.98R WCI  19
6HR MIN TEMP:  28; 6HR MAX TEMP:  37;

PLATTEVILLE    PTCLDY    28  23  81 NW9       29.93R WCI  19
6HR MIN TEMP:  28; 6HR MAX TEMP:  37;

$$

WIZ056-057-062-063-064-067-068-190700-
SOUTH CENTRAL WISCONSIN

CITY           SKY/WX    TMP DP  RH WIND       PRES   REMARKS
REEDSBURG      CLOUDY    28  18  65 NW8       29.90R WCI  20
6HR MIN TEMP:  28; 6HR MAX TEMP:  37;

BARABOO/DELLS  CLOUDY    29  18  65 NW8G18    29.89R WCI  21
6HR MIN TEMP:  29; 6HR MAX TEMP:  37;

LONE ROCK      CLEAR     29  19  66 NW13      29.92R WCI  19
6HR MIN TEMP:  29; 6HR MAX TEMP:  39;

MINERAL POINT  MOCLDY    30  25  80 NW5       29.90S WCI  25
MADISON        MOCLDY    30  20  66 NW9G20    29.87R WCI  22
6HR MIN TEMP:  30; 6HR MAX TEMP:  37;

MIDDLETON      MOCLDY    31  22  68 NW17      29.88R WCI  20
6HR MIN TEMP:  31; 6HR MAX TEMP:  38;

WATERTOWN      CLOUDY    32  22  67 NW17G23   29.85R WCI  21
6HR MIN TEMP:  32; 6HR MAX TEMP:  36;

MONROE         CLOUDY    30  21  69 NW18G24   29.88R WCI  18
JANESVILLE     CLOUDY    34  27  75 NW13G20   29.87R WCI  25
$$

WIZ051-052-058>065-066-070>072-190700-
SOUTHEAST WISCONSIN

CITY           SKY/WX    TMP DP  RH WIND       PRES   REMARKS
MILWAUKEE      CLOUDY    36  26  67 NW14G22   29.82R WCI  27
6HR MIN TEMP:  36; 6HR MAX TEMP:  39;

WAUKESHA       CLOUDY    32  23  69 NW20G25   29.83S WCI  20
MILWAUKEE/TIMM CLOUDY    34  23  64 NW14      29.83R WCI  24
RACINE         CLOUDY    36  25  64 NW13G26   29.84R WCI  27
6HR MIN TEMP:  36; 6HR MAX TEMP:  39;

BURLINGTON     CLOUDY    35  30  82 NW15G23   29.84R WCI  25
6HR MIN TEMP:  35; 6HR MAX TEMP:  39;

KENOSHA        CLOUDY    36  26  67 NW13G21   29.83R WCI  27
6HR MIN TEMP:  36; 6HR MAX TEMP:  39;

FOND DU LAC    CLOUDY    33  21  61 NW14      29.83R WCI  23
6HR MIN TEMP:  33; 6HR MAX TEMP:  37;

SHEBOYGAN      CLOUDY    33  27  78 NW12G20   29.80R WCI  24
6HR MIN TEMP:  33; 6HR MAX TEMP:  37;

WEST BEND      CLOUDY    32  25  74 NW15G28   29.81S WCI  22
JUNEAU         CLOUDY    31  23  71 NW13      29.86R WCI  21
6HR MIN TEMP:  31; 6HR MAX TEMP:  35;

$$

LSZ147-162-190700-
LAKE SUPERIOR

STATION/POSITION TIME  TEMP    WIND        PRES    WAVE
                       AIR SEA DIR/SP/G            HT/PER
                 (UTC) (F)     (DEG/KT/KT) (MB)    (FT/S)
DEVILS ISLAND    0600   21     310/ 19/ 23 1014.7R
SAXON HARBOR     0530   25     300/ 18/ 22 1013.2R
$$

LMZ867-665-643>646-190700-
LAKE MICHIGAN

STATION/POSITION TIME  TEMP    WIND        PRES    WAVE
                       AIR SEA DIR/SP/G            HT/PER
                 (UTC) (F)     (DEG/KT/KT) (MB)    (FT/S)
N MID LAKE BUOY  0550



USA.gov is the U.S. government's official web portal to all federal, state and local government web resources and services.